NA0H Weather Reports


time (UTC)temp
C
wind
direction
speed
KPH
gust
KPH
rain 1hr
cm
rain 24hr
cm
rain mn
cm
humidity
%
barometer
mb
20260504034503 17 201 20.9 35.4 0.00 0.00 0.00 37 990.9
20260504034003 17 200 20.9 35.4 0.00 0.00 0.00 37 991.0
20260504033503 17 202 20.9 32.2 0.00 0.00 0.00 38 991.1
20260504033215 17 201 19.3 32.2 0.00 0.00 0.00 37 991.2
20260504032503 17 200 19.3 32.2 0.00 0.00 0.00 38 991.4
20260504032003 16 201 19.3 29.0 0.00 0.00 0.00 39 991.5
20260504031503 16 200 17.7 32.2 0.00 0.00 0.00 38 991.7
20260504031003 16 202 17.7 32.2 0.00 0.00 0.00 40 991.8
20260504030503 16 199 17.7 30.6 0.00 0.00 0.00 39 992.0
20260504030003 16 197 16.1 27.4 0.00 0.00 0.00 40 992.2
20260504025503 16 198 16.1 25.7 0.00 0.00 0.00 41 992.4
20260504025003 16 197 17.7 25.7 0.00 0.00 0.00 39 992.5
20260504024503 16 197 16.1 25.7 0.00 0.00 0.00 41 992.6
20260504024217 16 196 16.1 25.7 0.00 0.00 0.00 39 992.6
20260504023503 16 189 16.1 24.1 0.00 0.00 0.00 40 992.8
20260504023003 16 187 14.5 22.5 0.00 0.00 0.00 41 993.0
20260504022503 16 193 12.9 22.5 0.00 0.00 0.00 39 993.1
20260504022217 16 196 12.9 20.9 0.00 0.00 0.00 40 993.2
20260504021718 17 198 12.9 20.9 0.00 0.00 0.00 40 993.4
20260504021003 17 197 12.9 19.3 0.00 0.00 0.00 38 993.7
20260504020503 17 198 12.9 20.9 0.00 0.00 0.00 39 993.7
20260504020003 17 197 12.9 20.9 0.00 0.00 0.00 38 993.9
20260504015718 17 195 11.3 19.3 0.00 0.00 0.00 39 994.0
20260504015003 17 201 11.3 22.5 0.00 0.00 0.00 38 994.0
20260504014503 17 209 11.3 22.5 0.00 0.00 0.00 39 994.2
20260504014003 17 212 12.9 20.9 0.00 0.00 0.00 38 994.3
20260504013503 17 214 12.9 20.9 0.00 0.00 0.00 38 994.5
20260504013003 17 212 11.3 20.9 0.00 0.00 0.00 38 994.6
20260504012503 17 211 11.3 19.3 0.00 0.00 0.00 37 994.6
20260504012003 17 213 12.9 25.7 0.00 0.00 0.00 37 994.8
20260504011503 17 212 14.5 25.7 0.00 0.00 0.00 37 994.9
20260504011003 17 213 12.9 25.7 0.00 0.00 0.00 36 995.1
20260504010503 17 217 12.9 27.4 0.00 0.00 0.00 38 995.2
20260504010003 17 217 12.9 27.4 0.00 0.00 0.00 37 995.3
20260504005503 17 214 12.9 24.1 0.00 0.00 0.00 38 995.4
20260504005003 17 215 14.5 27.4 0.00 0.00 0.00 37 995.4
20260504004503 17 218 14.5 27.4 0.00 0.00 0.00 38 995.5
20260504004003 17 220 14.5 24.1 0.00 0.00 0.00 37 995.7
20260504003503 18 219 16.1 25.7 0.00 0.00 0.00 35 995.8
20260504003218 18 220 17.7 32.2 0.00 0.00 0.00 35 995.8
20260504002503 18 221 16.1 32.2 0.00 0.00 0.00 36 995.9
20260504002003 17 224 14.5 24.1 0.00 0.00 0.00 36 996.1
20260504001503 17 230 17.7 27.4 0.00 0.00 0.00 36 996.2
20260504001218 17 229 16.1 27.4 0.00 0.00 0.00 35 996.3
20260504000503 17 221 16.1 30.6 0.00 0.00 0.00 37 996.4
20260504000003 17 224 17.7 30.6 0.00 0.00 0.00 36 996.5
20260503235503 17 227 19.3 32.2 0.00 0.00 0.00 36 996.5
20260503235003 17 231 20.9 37.0 0.00 0.00 0.00 36 996.5
20260503234503 17 236 20.9 37.0 0.00 0.00 0.00 35 996.8
20260503234216 17 239 20.9 30.6 0.00 0.00 0.00 37 996.7
20260503233503 17 237 20.9 32.2 0.00 0.00 0.00 37 996.9
20260503233003 17 240 19.3 32.2 0.00 0.00 0.00 37 997.0
20260503232503 17 243 20.9 38.6 0.00 0.00 0.00 37 997.1
20260503232216 17 240 20.9 38.6 0.00 0.00 0.00 36 997.3
20260503231717 17 254 20.9 38.6 0.00 0.00 0.00 36 997.4
20260503231003 18 248 24.1 38.6 0.00 0.00 0.00 34 997.6
20260503230503 18 246 20.9 35.4 0.00 0.00 0.00 35 997.8
20260503230003 18 256 19.3 32.2 0.00 0.00 0.00 34 997.9
20260503225503 17 250 19.3 32.2 0.00 0.00 0.00 37 998.1
20260503225003 17 249 19.3 33.8 0.00 0.00 0.00 36 998.2
20260503224503 17 256 20.9 33.8 0.00 0.00 0.00 37 998.3
20260503224003 17 256 22.5 35.4 0.00 0.00 0.00 37 998.4
20260503223716 17 256 22.5 35.4 0.00 0.00 0.00 37 998.4
20260503223003 17 263 22.5 37.0 0.00 0.00 0.00 36 998.6
20260503222503 17 263 19.3 37.0 0.00 0.00 0.00 39 998.7
20260503222003 17 247 19.3 33.8 0.00 0.00 0.00 38 998.7
20260503221503 17 257 20.9 29.0 0.00 0.00 0.00 38 998.8
20260503221003 17 261 22.5 32.2 0.00 0.00 0.00 38 999.0
20260503220503 17 249 20.9 32.2 0.00 0.00 0.00 39 999.0
20260503220003 17 244 22.5 35.4 0.00 0.00 0.00 40 999.2
20260503215503 17 250 22.5 37.0 0.00 0.00 0.00 39 999.3
20260503215003 16 262 19.3 37.0 0.00 0.00 0.00 41 999.4
20260503214503 17 269 16.1 30.6 0.00 0.00 0.00 39 999.6
20260503214003 17 269 14.5 29.0 0.00 0.00 0.00 38 999.8
20260503213503 16 252 14.5 27.4 0.00 0.00 0.00 40 999.9
20260503213003 16 246 17.7 30.6 0.00 0.00 0.00 38 1000.0
20260503212503 16 256 17.7 30.6 0.00 0.00 0.00 36 1000.1
20260503212003 16 269 19.3 30.6 0.00 0.00 0.00 38 1000.3
20260503211503 17 277 22.5 30.6 0.00 0.00 0.00 35 1000.5
20260503211003 16 276 20.9 29.0 0.00 0.00 0.00 37 1000.6
20260503210503 16 266 19.3 30.6 0.00 0.00 0.00 35 1000.6
20260503210003 16 269 17.7 30.6 0.00 0.00 0.00 36 1000.6
20260503205503 16 270 17.7 29.0 0.00 0.00 0.00 39 1000.9
20260503205003 16 267 19.3 29.0 0.00 0.00 0.00 35 1001.0
20260503204503 16 253 17.7 29.0 0.00 0.00 0.00 37 1001.1
20260503204003 16 236 19.3 29.0 0.00 0.00 0.00 35 1001.2
20260503203503 16 243 19.3 29.0 0.00 0.00 0.00 37 1001.2
20260503203003 16 253 17.7 27.4 0.00 0.00 0.00 36 1001.3
20260503202503 15 248 17.7 30.6 0.00 0.00 0.00 40 1001.4
20260503202003 16 247 17.7 30.6 0.00 0.00 0.00 38 1001.4
20260503201503 16 253 19.3 27.4 0.00 0.00 0.00 37 1001.6
20260503201003 15 257 19.3 27.4 0.00 0.00 0.00 39 1001.7
20260503200503 15 250 19.3 37.0 0.00 0.00 0.00 36 1001.8
20260503200003 16 259 19.3 37.0 0.00 0.00 0.00 36 1001.9
20260503195503 15 258 20.9 35.4 0.00 0.00 0.00 38 1002.0
20260503195003 15 246 22.5 35.4 0.00 0.00 0.00 39 1002.2
20260503194503 15 245 19.3 30.6 0.00 0.00 0.00 39 1002.3
20260503194003 15 246 19.3 30.6 0.00 0.00 0.00 39 1002.4
20260503193503 15 252 20.9 32.2 0.00 0.00 0.00 39 1002.7
20260503193003 15 258 19.3 32.2 0.00 0.00 0.00 40 1002.7
20260503192503 15 261 16.1 25.7 0.00 0.00 0.00 38 1002.8
20260503192003 15 259 14.5 37.0 0.00 0.00 0.00 38 1002.8
20260503191719 14 252 16.1 37.0 0.00 0.00 0.00 42 1003.0
20260503191003 14 246 17.7 27.4 0.00 0.00 0.00 44 1003.2
20260503190503 14 267 19.3 35.4 0.00 0.00 0.00 43 1003.2
20260503190003 14 257 22.5 35.4 0.00 0.00 0.00 42 1003.3
20260503185503 14 243 19.3 32.2 0.00 0.00 0.00 38 1003.6
20260503185216 13 245 17.7 29.0 0.00 0.00 0.00 41 1003.6
20260503184503 13 248 17.7 29.0 0.00 0.00 0.00 44 1003.8
20260503184003 13 260 17.7 29.0 0.00 0.00 0.00 40 1003.9
20260503183503 13 271 17.7 27.4 0.00 0.00 0.00 40 1004.0
20260503183216 13 266 17.7 27.4 0.00 0.00 0.00 45 1004.1
20260503182503 14 272 16.1 27.4 0.00 0.00 0.00 42 1004.3
20260503182003 13 285 16.1 27.4 0.00 0.00 0.00 40 1004.3
20260503181504 13 285 16.1 29.0 0.00 0.00 0.00 40 1004.4
20260503181003 13 284 19.3 30.6 0.00 0.00 0.00 42 1004.6
20260503180503 13 288 19.3 30.6 0.00 0.00 0.00 41 1004.6
20260503180003 13 290 16.1 29.0 0.00 0.00 0.00 44 1004.6
20260503175503 13 292 17.7 27.4 0.00 0.00 0.00 46 1004.7
20260503175003 12 296 20.9 29.0 0.00 0.00 0.00 43 1004.8
20260503174503 12 290 20.9 29.0 0.00 0.00 0.00 45 1004.9
20260503174003 12 289 16.1 29.0 0.00 0.00 0.00 44 1005.0
20260503173718 13 293 16.1 27.4 0.00 0.00 0.00 44 1005.0
20260503173003 12 281 16.1 27.4 0.00 0.00 0.00 46 1005.2
20260503172503 12 278 16.1 22.5 0.00 0.00 0.00 47 1005.4
20260503172218 12 287 16.1 22.5 0.00 0.00 0.00 46 1005.3
20260503171503 12 292 16.1 24.1 0.00 0.00 0.00 45 1005.5
20260503171003 12 290 17.7 25.7 0.00 0.00 0.00 48 1005.6
20260503170503 12 292 16.1 25.7 0.00 0.00 0.00 45 1005.6
20260503151003 9 282 11.3 14.5 0.00 0.00 0.00 56 1006.7
20260503150503 9 288 12.9 22.5 0.00 0.00 0.00 56 1006.6
20260503131003 5 360 1.6 6.4 0.00 0.00 0.00 76 1006.8
20260503130503 4 360 0.0 3.2 0.00 0.00 0.00 78 1006.8
20260503130216 4 360 0.0 3.2 0.00 0.00 0.00 77 1006.8
20260503110503 4 360 3.2 4.8 0.00 0.00 0.00 84 1005.9
20260503090503 5 360 3.2 6.4 0.00 0.00 0.00 90 1005.3
20260503090218 5 360 3.2 6.4 0.00 0.00 0.00 90 1005.3
20260503081503 5 0 0.0 0.0 0.00 0.00 0.00 90 1005.2
20260503081003 5 0 0.0 0.0 0.00 0.00 0.00 90 1005.1
20260503080503 5 0 0.0 0.0 0.00 0.00 0.00 90 1005.1
20260503072717 5 0 0.0 0.0 0.00 0.00 0.00 89 1004.9
20260503072003 5 0 0.0 0.0 0.00 0.00 0.00 89 1005.0
20260503071503 5 0 0.0 0.0 0.00 0.00 0.00 88 1005.0
20260503071216 5 0 0.0 0.0 0.00 0.00 0.00 88 1005.0
20260503070503 6 0 0.0 0.0 0.00 0.00 0.00 88 1005.0
20260503054503 7 0 0.0 0.0 0.00 0.00 0.00 81 1005.1
20260503054003 7 0 0.0 0.0 0.00 0.00 0.00 81 1005.0
20260503053503 7 0 0.0 0.0 0.00 0.00 0.00 80 1005.0
20260503053003 7 0 0.0 0.0 0.00 0.00 0.00 80 1005.0
20260503052503 8 0 0.0 0.0 0.00 0.00 0.00 79 1004.9
20260503052003 8 0 0.0 0.0 0.00 0.00 0.00 79 1004.9
20260503051503 8 0 0.0 0.0 0.00 0.00 0.00 78 1004.9
20260503051003 8 0 0.0 0.0 0.00 0.00 0.00 78 1004.9
20260503050503 8 0 0.0 0.0 0.00 0.00 0.00 77 1004.8
20260503050003 8 0 0.0 0.0 0.00 0.00 0.00 77 1004.7
20260503045503 8 0 0.0 0.0 0.00 0.00 0.00 77 1004.7
20260503045003 8 0 0.0 0.0 0.00 0.00 0.00 77 1004.8
20260503044503 8 0 0.0 0.0 0.00 0.00 0.00 77 1004.8
20260503044003 8 0 0.0 0.0 0.00 0.00 0.00 77 1004.8
20260503043718 8 0 0.0 0.0 0.00 0.00 0.00 77 1004.8
20260503043003 9 0 0.0 0.0 0.00 0.00 0.00 76 1004.9
20260503042503 9 0 0.0 0.0 0.00 0.00 0.00 76 1004.9
20260503042003 9 0 0.0 0.0 0.00 0.00 0.00 76 1004.9
20260503041503 9 0 0.0 0.0 0.00 0.00 0.00 76 1004.9
20260503041003 9 0 0.0 0.0 0.00 0.00 0.00 76 1004.9
20260503040715 9 0 0.0 0.0 0.00 0.00 0.00 75 1004.9
20260503040003 10 0 0.0 0.0 0.00 0.00 0.00 74 1004.9
20260503035717 10 0 0.0 0.0 0.00 0.00 0.00 74 1004.9
20260503035003 10 0 0.0 0.0 0.00 0.00 0.00 73 1004.9